User: anonymous   Login
Location: Unspecified
(0.0000°N, 0.0000°E)
Time: 19:14:06
(UTC+00:00)
Language:

ONEWEB-0445 - Orbit

View from above orbital plane
View from above orbital plane
View from above satellite
View from above satellite

Ground track
Ground track

The orbit is defined by the following mean orbital elements,

1 51639U          26145.43938904 +.00000000 +00000-0 -12142-2 0 00008
2 51639  87.8864  40.7820 0001651  84.3867 275.7449 13.10375862    01
Epoch (UTC): 25 May 2026 10:32:43
Eccentricity: 0.0001651
inclination: 87.8864°
perigee height: 1220 km
apogee height: 1223 km
right ascension of ascending node: 40.7820°
argument of perigee: 84.3867°
revolutions per day: 13.10375862
mean anomaly at epoch: 275.7449°

The dashed part of the orbit path shows where the satellite is in the earth's shadow,  

DLR